Location: Unspecified
(42.7170°S, 0.0000°E)
Time: 17:59:30
(UTC+00:00)

N. Korean satellite - Pass Details

Date: 24 May 2019
Orbit: 455 x 510 km, 97.2° (Epoch: 24 June)

Event Time Altitude Azimuth Distance (km) Brightness Sun altitude
Exits shadow 18:20:40 10° 174° (S) 1,741 9.2 -18.2°
Reaches altitude 10° 18:20:42 10° 174° (S) 1,728 9.2 -18.2°
Maximum altitude 18:24:24 65° 256° (WSW) 565 7.0 -18.9°
Drops below altitude 10° 18:28:05 10° 337° (NNW) 1,727 9.8 -19.5°
Sets 18:30:11 0° 340° (NNW) 2,609 10.7 -19.9°
